Regional Weather Roundup
Issued by NWS

Home | Current Version | Previous Version | Graphics & Text | Print | Product List | Glossary On
Versions: 1 2 3 4 5 6 7 8 9 10 11 12 13 14 15 16 17 18 19 20 21 22 23 24 25 26 27 28 29 30 31 32 33 34 35 36 37 38 39 40 41 42 43 44 45 46 47 48
000
ASUS45 KCYS 202310
RWRWY

WYOMING REGIONAL WEATHER ROUNDUP
NATIONAL WEATHER SERVICE CHEYENNE WY
400 PM MST SAT DEC 20 2014

NOTE:  "FAIR" INDICATES FEW OR NO CLOUDS BELOW 12,000 FEET
WITH NO SIGNIFICANT WEATHER AND/OR OBSTRUCTIONS TO VISIBILITY.

WYZ001-210000-
YELLOWSTONE NATIONAL PARK

CITY           SKY/WX    TMP DP  RH WIND       PRES   REMARKS
LK YELLOWSTONE   N/A     27  21  78 W9        29.90F WCI  18
W YELLOWSTONE  NOT AVBL

$$
WYZ002>013-054>058-071-098>099-210000-
NORTHERN WYOMING

CITY           SKY/WX    TMP DP  RH WIND       PRES   REMARKS
JACKSON        CLOUDY    34  28  80 S16       29.95R WCI  23
CODY           FAIR      36  25  64 S7        29.84S WCI  30
GREYBULL       MOCLDY    26  20  77 W3        29.88F
WORLAND        FAIR      28  21  75 SE7G18    29.87F WCI  21
SHERIDAN       MOCLDY    39  26  59 E3        29.83F
BUFFALO        FAIR      33  23  66 SE8       29.85F WCI  26
GILLETTE       FAIR      35  25  66 S6        29.86F WCI  30
HULETT           N/A    N/A N/A N/A MISG        N/A
NEWCASTLE      FAIR      41  23  48 CALM      29.89F

$$
WYZ014>020-022>026-101>103-210000-
CENTRAL WYOMING

CITY           SKY/WX    TMP DP  RH WIND       PRES   REMARKS
BIG PINEY      FAIR      34  23  64 W5        29.97S WCI  30
PINEDALE       FAIR      30  21  69 CALM      29.97S
DUBOIS         NOT AVBL
LANDER         FAIR      31  22  69 W5        29.89F WCI  26
RIVERTON       FAIR      22  18  85 S6        29.91F WCI  14
CASPER         MOCLDY    34  27  75 SW16      29.90F WCI  24
DOUGLAS        FAIR      38  25  59 W10       29.91R WCI  31

$$
WYZ021-027>030-104>119-210000-
SOUTHERN WYOMING

CITY           SKY/WX    TMP DP  RH WIND       PRES   REMARKS
EVANSTON       MOCLDY    31  29  92 SW13      30.01R WCI  21
KEMMERER       CLOUDY    32  28  86 W12G18    30.00S WCI  23
FORT BRIDGER   CLOUDY    34  32  94 W17       30.03R WCI  23
ROCK SPRINGS   LGT SNOW  30  29  96 SW17      30.00R VSB 3/4 WCI  18
DIXON          FLURRIES  33  26  75 SW7       30.06S WCI  26
RAWLINS        LGT SNOW  31  26  82 SW13      29.99R WCI  21
SARATOGA       MOCLDY    32  25  74 SW9       29.99S WCI  24
LARAMIE        MOCLDY    32  22  66 SW14      29.95S WCI  22
CHEYENNE       FAIR      40  20  44 W20G26    29.93S WCI  30
TORRINGTON     FAIR     N/A N/A N/A W9        29.90F
PINE BLUFFS    FAIR      41  23  48 NW8       29.93F

$$


USA.gov is the U.S. government's official web portal to all federal, state and local government web resources and services.